Date,TemperatureHighF,TemperatureAvgF,TemperatureLowF,DewpointHighF,DewpointAvgF,DewpointLowF,HumidityHigh,HumidityAvg,HumidityLow,PressureMaxIn,PressureMinIn,WindSpeedMaxMPH,WindSpeedAvgMPH,GustSpeedMaxMPH,PrecipitationSumIn
2013-2-1,33.0,29.2,20.0,27.0,12.2,3.0,84,50,30,30.42,29.81,14,3,30,0.04
2013-2-2,34.0,24.9,14.0,27.0,13.9,5.0,91,66,36,30.42,30.03,6,1,14,0.00
2013-2-3,37.0,29.4,23.0,30.0,26.3,21.0,95,88,72,30.03,29.84,2,0,7,0.01
2013-2-4,38.0,31.2,20.0,23.0,18.3,13.0,83,59,47,30.14,29.92,4,1,11,0.01
2013-2-5,50.0,40.4,31.0,32.0,28.3,21.0,85,62,48,29.93,29.83,2,0,7,0.00
2013-2-6,54.0,38.3,28.0,34.0,28.5,25.0,93,70,40,30.37,29.93,4,0,12,0.00
2013-2-7,41.0,34.2,26.0,30.0,26.5,23.0,89,74,57,30.45,30.20,3,0,7,0.00
2013-2-8,45.0,38.8,33.0,40.0,34.0,24.0,97,84,56,30.20,29.76,11,2,24,0.36
2013-2-9,46.0,37.0,28.0,24.0,19.2,14.0,64,49,31,30.40,29.96,10,4,30,0.01
2013-2-10,47.0,33.7,19.0,28.0,19.2,15.0,89,59,30,30.51,30.26,4,1,9,0.00
2013-2-11,57.0,46.7,37.0,52.0,43.2,28.0,97,88,63,30.27,29.75,6,2,17,0.12
2013-2-12,60.0,48.2,36.0,45.0,31.4,25.0,87,56,27,30.00,29.80,4,0,13,0.01
2013-2-13,45.0,39.5,35.0,39.0,33.1,28.0,94,79,66,29.94,29.65,4,0,11,0.17
2013-2-14,51.0,38.6,28.0,36.0,29.9,27.0,97,75,41,30.05,29.79,3,1,8,0.10
2013-2-15,62.0,45.1,30.0,38.0,32.3,28.0,93,66,29,30.06,29.88,7,1,19,0.17
2013-2-16,39.0,35.6,34.0,35.0,33.7,32.0,96,92,81,30.04,29.93,2,0,6,0.21
2013-2-17,34.0,29.2,24.0,10.0,5.6,4.0,46,36,29,30.24,30.01,12,6,26,0.00
2013-2-18,46.0,30.8,15.0,18.0,11.1,7.0,83,48,21,30.41,30.20,5,1,11,0.00
2013-2-19,47.0,40.1,34.0,43.0,31.5,19.0,93,72,47,30.20,29.76,5,1,18,0.09
2013-2-20,46.0,35.8,27.0,30.0,18.4,13.0,84,51,29,30.17,29.87,7,2,17,0.01
2013-2-21,43.0,32.2,24.0,19.0,15.2,11.0,60,50,37,30.33,30.16,7,2,17,0.00
2013-2-22,36.0,32.8,30.0,31.0,24.1,17.0,87,70,58,30.39,30.24,3,0,7,0.01
2013-2-23,45.0,38.5,34.0,43.0,36.9,31.0,96,94,88,30.24,29.83,4,0,8,0.07
2013-2-24,58.0,45.1,34.0,41.0,34.4,20.0,95,70,32,30.13,29.82,6,2,17,0.03
2013-2-25,46.0,36.1,27.0,25.0,21.7,18.0,79,57,39,30.23,30.13,4,0,11,0.03
2013-2-26,47.0,36.5,26.0,46.0,33.7,22.0,96,90,79,30.24,29.59,10,2,19,0.69
2013-2-27,60.0,49.3,41.0,45.0,39.3,33.0,97,72,38,29.71,29.54,7,2,15,0.39
2013-2-28,48.0,44.7,41.0,39.0,30.9,25.0,83,59,42,29.75,29.63,9,1,20,0.00